#timestamp,LO_Frequency,Hit,Temp,Hum 
1479358815.2,286046926.3,N,0.0,0.0
1479358835.1,286046926.2,N,0.0,0.0
1479358836.0,286046926.2,N,0.0,0.0
1479358855.8,286046924.5,N,0.0,0.0
1479358875.7,286046927.2,N,0.0,0.0
1479358895.5,286046927.6,N,0.0,0.0
1479358915.3,286046926.8,N,0.0,0.0
1479358935.2,286046927.1,N,0.0,0.0
1479358955.0,286046927.6,N,0.0,0.0
1479358955.9,286046927.6,N,0.0,0.0
1479358975.8,286046925.0,N,0.0,0.0
1479358995.6,286046924.7,N,0.0,0.0
1479359015.4,286046924.8,N,0.0,0.0
1479359035.3,286046925.8,N,0.0,0.0
1479359055.1,286046923.0,N,0.0,0.0
1479359075.9,286046925.1,N,0.0,0.0
1479359095.7,286046923.3,N,0.0,0.0
1479359115.5,286046923.1,N,0.0,0.0
1479359135.4,286046923.2,N,0.0,0.0
1479359155.2,286046926.0,N,0.0,0.0
1479359175.0,286046923.2,N,0.0,0.0
1479359175.9,286046923.2,N,0.0,0.0
1479359195.8,286046923.4,N,0.0,0.0
1479359215.6,286046923.4,N,0.0,0.0
1479359235.5,286046924.2,N,0.0,0.0
1479359255.3,286046921.6,N,0.0,0.0
1479359275.1,286046922.0,N,0.0,0.0
1479359295.9,286046922.5,N,0.0,0.0
1479359315.7,286046921.5,N,0.0,0.0
1479359335.5,286046922.5,N,0.0,0.0
1479359355.4,286046920.4,N,0.0,0.0
1479359375.2,286046920.1,N,0.0,0.0
1479359395.1,286046919.7,N,0.0,0.0
1479359396.0,286046919.7,N,0.0,0.0
1479359415.8,286046920.9,N,0.0,0.0
1479359435.6,286046920.9,N,0.0,0.0
1479359455.5,286046920.9,N,0.0,0.0
1479359475.3,286046920.2,N,0.0,0.0
1479359495.1,286046920.8,N,0.0,0.0
1479359515.9,286046918.2,N,0.0,0.0
1479359535.7,286046918.2,N,0.0,0.0
1479359555.6,286046920.8,N,0.0,0.0
1479359575.4,286046918.9,N,0.0,0.0
1479359595.2,286046918.7,N,0.0,0.0
1479359615.1,286046918.4,N,0.0,0.0
1479359616.0,286046918.4,N,0.0,0.0
1479359635.8,286046918.6,N,0.0,0.0
1479359655.7,286046916.5,N,0.0,0.0
1479359675.5,286046919.1,N,0.0,0.0
1479359695.3,286046919.2,N,0.0,0.0
1479359715.2,286046918.9,N,0.0,0.0
1479359735.0,286046919.6,N,0.0,0.0
1479359735.9,286046919.6,N,0.0,0.0
1479359755.8,286046916.5,N,0.0,0.0
1479359775.6,286046916.6,N,0.0,0.0
1479359795.4,286046919.2,N,0.0,0.0
1479359815.3,286046919.6,N,0.0,0.0
1479359835.1,286046916.6,N,0.0,0.0
1479359855.8,286046917.2,N,0.0,0.0
1479359875.7,286046917.7,N,0.0,0.0
1479359895.5,286046915.3,N,0.0,0.0
1479359915.4,286046915.6,N,0.0,0.0
1479359935.2,286046916.1,N,0.0,0.0
1479359955.0,286046916.1,N,0.0,0.0
1479359955.9,286046916.1,N,0.0,0.0
1479359975.8,286046914.1,N,0.0,0.0
1479359995.6,286046914.1,N,0.0,0.0
1479360015.4,286046914.1,N,0.0,0.0
1479360035.3,286046913.6,N,0.0,0.0
1479360055.1,286046912.0,N,0.0,0.0
1479360075.9,286046911.7,N,0.0,0.0
1479360095.7,286046914.7,N,0.0,0.0
1479360115.5,286046911.9,N,0.0,0.0
1479360135.4,286046912.4,N,0.0,0.0
1479360155.2,286046912.1,N,0.0,0.0
1479360175.0,286046912.0,N,0.0,0.0
1479360176.0,286046912.0,N,0.0,0.0
1479360195.8,286046914.7,N,0.0,0.0
1479360215.6,286046912.2,N,0.0,0.0
1479360235.5,286046912.3,N,0.0,0.0
1479360255.3,286046912.9,N,0.0,0.0
1479360275.1,286046912.0,N,0.0,0.0
1479360295.9,286046910.5,N,0.0,0.0
1479360315.7,286046910.4,N,0.0,0.0
1479360335.6,286046910.1,N,0.0,0.0
1479360355.4,286046912.9,N,0.0,0.0
1479360375.2,286046910.2,N,0.0,0.0
1479360395.1,286046913.1,N,0.0,0.0
1479360396.0,286046913.1,N,0.0,0.0
1479360415.8,286046910.5,N,0.0,0.0
1479360435.6,286046912.6,N,0.0,0.0
1479360455.5,286046910.3,N,0.0,0.0
1479360475.3,286046911.4,N,0.0,0.0
1479360495.2,286046909.1,N,0.0,0.0
1479360515.9,286046908.6,N,0.0,0.0
1479360535.7,286046909.8,N,0.0,0.0
1479360555.6,286046907.7,N,0.0,0.0
1479360575.4,286046908.1,N,0.0,0.0
1479360595.3,286046907.2,N,0.0,0.0
1479360615.1,286046907.0,N,0.0,0.0
1479360616.0,286046907.0,N,0.0,0.0
1479360635.8,286046909.6,N,0.0,0.0
1479360655.7,286046907.0,N,0.0,0.0
1479360675.5,286046909.9,N,0.0,0.0
1479360695.3,286046908.3,N,0.0,0.0
1479360715.2,286046908.2,N,0.0,0.0
1479360735.0,286046908.0,N,0.0,0.0
1479360735.9,286046908.0,N,0.0,0.0
1479360755.8,286046907.9,N,0.0,0.0
1479360775.6,286046908.0,N,0.0,0.0
1479360795.4,286046905.5,N,0.0,0.0
1479360815.3,286046905.7,N,0.0,0.0
1479360835.1,286046905.7,N,0.0,0.0
1479360855.9,286046906.2,N,0.0,0.0
1479360875.7,286046906.3,N,0.0,0.0
1479360895.5,286046906.7,N,0.0,0.0
1479360915.4,286046906.1,N,0.0,0.0
1479360935.2,286046904.1,N,0.0,0.0
1479360955.0,286046906.0,N,0.0,0.0
1479360955.9,286046906.0,N,0.0,0.0
1479360975.8,286046906.8,N,0.0,0.0
1479360995.6,286046906.4,N,0.0,0.0
1479361015.5,286046906.8,N,0.0,0.0
1479361035.3,286046904.2,N,0.0,0.0
1479361055.1,286046903.7,N,0.0,0.0
1479361075.9,286046905.9,N,0.0,0.0
1479361095.7,286046906.4,N,0.0,0.0
1479361115.5,286046903.7,N,0.0,0.0
1479361135.4,286046904.0,N,0.0,0.0
1479361155.2,286046904.9,N,0.0,0.0
1479361175.1,286046905.1,N,0.0,0.0
1479361176.0,286046905.1,N,0.0,0.0
1479361195.8,286046904.5,N,0.0,0.0
1479361215.6,286046904.8,N,0.0,0.0
1479361235.5,286046904.2,N,0.0,0.0
1479361255.3,286046905.0,N,0.0,0.0
1479361275.1,286046905.0,N,0.0,0.0
1479361295.9,286046904.8,N,0.0,0.0
1479361315.7,286046905.1,N,0.0,0.0
1479361335.6,286046903.1,N,0.0,0.0
1479361355.4,286046903.1,N,0.0,0.0
1479361375.2,286046903.5,N,0.0,0.0
1479361395.1,286046900.5,N,0.0,0.0
1479361396.0,286046900.5,N,0.0,0.0
1479361415.8,286046900.8,N,0.0,0.0
1479361435.6,286046901.4,N,0.0,0.0
1479361455.5,286046901.3,N,0.0,0.0
1479361475.3,286046900.8,N,0.0,0.0
1479361495.2,286046898.9,N,0.0,0.0
1479361515.9,286046898.9,N,0.0,0.0
1479361535.7,286046901.4,N,0.0,0.0
1479361555.6,286046903.1,N,0.0,0.0
1479361575.4,286046900.7,N,0.0,0.0
1479361595.2,286046903.5,N,0.0,0.0
1479361615.1,286046900.7,N,0.0,0.0
1479361616.0,286046900.7,N,0.0,0.0
1479361635.8,286046900.6,N,0.0,0.0
1479361655.7,286046901.5,N,0.0,0.0
1479361675.5,286046901.9,N,0.0,0.0
1479361695.3,286046901.9,N,0.0,0.0
1479361715.2,286046900.8,N,0.0,0.0
1479361735.0,286046899.3,N,0.0,0.0
1479361735.9,286046899.3,N,0.0,0.0
1479361755.8,286046899.4,N,0.0,0.0
1479361775.6,286046899.3,N,0.0,0.0
1479361795.4,286046901.8,N,0.0,0.0
1479361815.3,286046899.5,N,0.0,0.0
1479361835.1,286046899.4,N,0.0,0.0
1479361855.9,286046899.8,N,0.0,0.0
1479361875.7,286046899.5,N,0.0,0.0
1479361895.5,286046897.3,N,0.0,0.0
1479361915.4,286046897.8,N,0.0,0.0
1479361935.2,286046897.3,N,0.0,0.0
1479361955.0,286046900.0,N,0.0,0.0
1479361955.9,286046900.0,N,0.0,0.0
1479361975.8,286046898.2,N,0.0,0.0
1479361995.6,286046898.6,N,0.0,0.0
1479362015.5,286046898.5,N,0.0,0.0
1479362035.3,286046898.1,N,0.0,0.0
1479362055.1,286046898.6,N,0.0,0.0
1479362075.9,286046898.6,N,0.0,0.0
1479362095.7,286046898.2,N,0.0,0.0
1479362115.6,286046898.5,N,0.0,0.0
1479362135.4,286046898.7,N,0.0,0.0
1479362155.2,286046895.7,N,0.0,0.0
1479362175.1,286046896.1,N,0.0,0.0
1479362176.0,286046896.1,N,0.0,0.0
1479362195.8,286046898.7,N,0.0,0.0
1479362215.6,286046897.0,N,0.0,0.0
1479362235.5,286046896.6,N,0.0,0.0
1479362255.3,286046896.5,N,0.0,0.0
1479362275.2,286046897.1,N,0.0,0.0
1479362295.9,286046895.3,N,0.0,0.0
1479362315.7,286046895.2,N,0.0,0.0
1479362335.6,286046892.5,N,0.0,0.0
1479362355.4,286046895.2,N,0.0,0.0
1479362375.2,286046892.8,N,0.0,0.0
1479362395.1,286046893.2,N,0.0,0.0
1479362396.0,286046893.2,N,0.0,0.0
